Regional Weather Roundup
Issued by NWS State College, PA

Home | Current Version | Previous Version | Text Only | Print | Product List | Glossary On
Versions: 1 2 3 4 5 6 7 8 9 10 11 12 13 14 15 16 17 18 19 20 21 22 23 24 25 26 27 28 29 30 31 32 33 34 35 36 37 38 39 40 41 42 43 44 45 46 47 48 49 50
000
ASUS41 KCTP 231010
RWRCTP

REGIONAL WEATHER ROUNDUP
NATIONAL WEATHER SERVICE STATE COLLEGE PA
600 AM EDT WED JUL 23 2014

Note: "fair" indicates few or no clouds below 12,000 feet with no
significant weather and/or obstructions to visibility.

* = STATION THAT DOES NOT REPORT PRECIPITATION /E.G. RAIN...SNOW...ETC/
    THUNDER OR FOG.

PAZ002>004-007>009-013>016-020>023-029>032-231100-
WESTERN PENNSYLVANIA

CITY           SKY/WX    TMP DP  RH WIND       PRES   REMARKS
ERIE           CLOUDY    77  66  68 SW8       29.94R
MEADVILLE      NOT AVBL
FRANKLIN*      CLOUDY    70  64  83 SW5       30.03R
NEW CASTLE       N/A     71  69  93 CALM      30.01R
BEAVER COUNTY  NOT AVBL
BUTLER*        PTCLDY    70  66  88 SW3       30.03R
PITTSBURGH INT PTCLDY    74  69  85 SW5       30.01R
PITTSBURGH     CLEAR     72  67  84 S9        30.01R
INDIANA*       CLOUDY    70  68  94 SW3       30.07R
LATROBE        MOCLDY    72  72 100 SW7       30.04R
WASHINGTON CO* MOCLDY    66  64  94 CALM      30.03S
$$

PAZ004>006-010>012-017>019-024>028-033>037-041-042-045-046-049>053-231100-
CENTRAL PENNSYLVANIA

CITY           SKY/WX    TMP DP  RH WIND       PRES   REMARKS
BRADFORD       MOCLDY    69  66  90 SW3       30.02R FOG
DUBOIS         PTCLDY    70  67  90 SW6       30.03R FOG
CLEARFIELD     FOG       67  67 100 SW3       30.03R VSB 1/4
JOHNSTOWN      MOCLDY    67  66  97 SW7       30.08R
ALTOONA        MOCLDY    68  67  96 W5        30.04R
STATE COLLEGE  PTCLDY    70  68  94 SW6       30.01R
WILLIAMSPORT   CLEAR     70  67  90 CALM      29.96R
SELINSGROVE    CLEAR     69  67  93 CALM      29.98R FOG
FT INDIANTOWN  CLEAR     66  66 100 N2        30.00S FOG
CAPITAL CITY   CLEAR     71  68  90 CALM      29.98F
HARRISBURG     PTCLDY    73  68  84 SE3       29.97F
YORK           PTCLDY    71  68  90 VRB3      29.99F
$$

PAZ038>040-043-044-047-048-054-055-060>062-067>071-231100-
EASTERN PENNSYLVANIA

CITY           SKY/WX    TMP DP  RH WIND       PRES   REMARKS
SCRANTON       CLEAR     72  67  84 CALM      29.98F
MOUNT POCONO   CLEAR     67  64  90 W5        30.03F FOG
ALLENTOWN      PTCLDY    69  65  86 CALM      29.99F
QUAKERTOWN*    SUNNY     66  64  94 CALM      30.01S
READING        CLEAR     71  65  81 CALM      29.98F
LANCASTER      PTCLDY    67  64  90 CALM      29.99F
COATESVILLE    SUNNY     68  68 100 W5        30.02S
POTTSTOWN      PTCLDY    67  65  93 CALM      30.01F
BLUE BELL      CLEAR     70  68  94 CALM      29.98F
DOYLESTOWN     CLEAR     67  66  97 S3        29.99F
WILLOW GROVE   NOT AVBL
NORTH PHILA    PTCLDY    73  65  75 VRB3      30.00F
PHILADELPHIA   MOCLDY    72  65  78 S9G18     30.00F
$$



USA.gov is the U.S. government's official web portal to all federal, state and local government web resources and services.